| time (UTC) | temp F | wind direction | speed MPH | gust MPH | rain 1hr in | rain 24hr in | rain mn in | humidity % | barometer mb |
| 20260510110354 | 39 | 0 | 5.0 | 12.0 | 0.00 | 0.00 | 0.00 | 54 | 1018.0 |
| 20260510105852 | 39 | 302 | 4.0 | 12.0 | 0.00 | 0.00 | 0.00 | 54 | 1017.9 |
| 20260510105348 | 39 | 333 | 3.0 | 8.0 | 0.00 | 0.00 | 0.00 | 54 | 1017.8 |
| 20260510104846 | 39 | 279 | 2.0 | 8.0 | 0.00 | 0.00 | 0.00 | 55 | 1017.8 |
| 20260510104344 | 39 | 321 | 2.0 | 6.0 | 0.00 | 0.00 | 0.00 | 55 | 1017.7 |
| 20260510103818 | 39 | 302 | 2.0 | 10.0 | 0.00 | 0.00 | 0.00 | 54 | 1017.6 |
| 20260510103250 | 39 | 315 | 2.0 | 7.0 | 0.00 | 0.00 | 0.00 | 55 | 1017.5 |
| 20260510102748 | 40 | 226 | 3.0 | 11.0 | 0.00 | 0.00 | 0.00 | 54 | 1017.4 |
| 20260510102222 | 40 | 254 | 3.0 | 11.0 | 0.00 | 0.00 | 0.00 | 54 | 1017.4 |
| 20260510101719 | 40 | 5 | 3.0 | 9.0 | 0.00 | 0.00 | 0.00 | 54 | 1017.4 |
| 20260510101217 | 40 | 300 | 3.0 | 8.0 | 0.00 | 0.00 | 0.00 | 54 | 1017.3 |
| 20260510100713 | 40 | 5 | 3.0 | 8.0 | 0.00 | 0.00 | 0.00 | 54 | 1017.2 |
| 20260510100210 | 40 | 317 | 2.0 | 8.0 | 0.00 | 0.00 | 0.00 | 54 | 1017.2 |
| 20260510095643 | 40 | 259 | 2.0 | 7.0 | 0.00 | 0.00 | 0.00 | 53 | 1017.2 |
| 20260510095117 | 40 | 225 | 1.0 | 6.0 | 0.00 | 0.00 | 0.00 | 52 | 1017.0 |
| 20260510094553 | 40 | 257 | 1.0 | 6.0 | 0.00 | 0.00 | 0.00 | 52 | 1017.0 |
| 20260510094258 | 41 | 253 | 3.0 | 7.0 | 0.00 | 0.00 | 0.00 | 52 | 1016.9 |
| 20260510093458 | 41 | 227 | 3.0 | 8.0 | 0.00 | 0.00 | 0.00 | 52 | 1016.8 |
| 20260510092958 | 41 | 275 | 3.0 | 9.0 | 0.00 | 0.00 | 0.00 | 52 | 1016.7 |
| 20260510092443 | 41 | 266 | 3.0 | 9.0 | 0.00 | 0.00 | 0.00 | 51 | 1016.4 |
| 20260510092219 | 41 | 261 | 3.0 | 9.0 | 0.00 | 0.00 | 0.00 | 51 | 1016.5 |
| 20260510091703 | 41 | 288 | 4.0 | 9.0 | 0.00 | 0.00 | 0.00 | 51 | 1016.3 |
| 20260510091546 | 41 | 279 | 3.0 | 9.0 | 0.00 | 0.00 | 0.00 | 51 | 1016.5 |
| 20260510090409 | 41 | 262 | 2.0 | 9.0 | 0.00 | 0.00 | 0.00 | 51 | 1016.4 |
| 20260510090133 | 40 | 240 | 1.0 | 9.0 | 0.00 | 0.00 | 0.00 | 51 | 1016.2 |
| 20260510085358 | 40 | 276 | 1.0 | 4.0 | 0.00 | 0.00 | 0.00 | 51 | 1016.2 |
| 20260510084856 | 40 | 323 | 1.0 | 3.0 | 0.00 | 0.00 | 0.00 | 51 | 1016.1 |
| 20260510084330 | 40 | 323 | 0.0 | 3.0 | 0.00 | 0.00 | 0.00 | 51 | 1016.1 |
| 20260510083806 | 41 | 230 | 0.0 | 0.0 | 0.00 | 0.00 | 0.00 | 49 | 1016.1 |
| 20260510083242 | 41 | 230 | 0.0 | 3.0 | 0.00 | 0.00 | 0.00 | 49 | 1016.1 |
| 20260510082743 | 42 | 230 | 1.0 | 3.0 | 0.00 | 0.00 | 0.00 | 49 | 1016.0 |
| 20260510082220 | 42 | 270 | 0.0 | 2.0 | 0.00 | 0.00 | 0.00 | 48 | 1015.9 |
| 20260510081719 | 42 | 270 | 0.0 | 2.0 | 0.00 | 0.00 | 0.00 | 48 | 1015.9 |
| 20260510081218 | 42 | 276 | 1.0 | 6.0 | 0.00 | 0.00 | 0.00 | 47 | 1015.8 |
| 20260510080717 | 42 | 275 | 2.0 | 6.0 | 0.00 | 0.00 | 0.00 | 47 | 1015.6 |
| 20260510080445 | 43 | 285 | 2.0 | 8.0 | 0.00 | 0.00 | 0.00 | 47 | 1015.8 |
| 20260510075710 | 43 | 294 | 2.0 | 9.0 | 0.00 | 0.00 | 0.00 | 47 | 1015.6 |
| 20260510075212 | 43 | 271 | 3.0 | 9.0 | 0.00 | 0.00 | 0.00 | 47 | 1015.6 |
| 20260510074648 | 43 | 217 | 4.0 | 9.0 | 0.00 | 0.00 | 0.00 | 46 | 1015.5 |
| 20260510074145 | 43 | 272 | 3.0 | 9.0 | 0.00 | 0.00 | 0.00 | 46 | 1015.4 |
| 20260510073624 | 43 | 241 | 2.0 | 8.0 | 0.00 | 0.00 | 0.00 | 45 | 1015.4 |
| 20260510073117 | 43 | 240 | 2.0 | 5.0 | 0.00 | 0.00 | 0.00 | 45 | 1015.4 |
| 20260510072555 | 43 | 281 | 2.0 | 6.0 | 0.00 | 0.00 | 0.00 | 45 | 1015.4 |
| 20260510072055 | 44 | 303 | 3.0 | 8.0 | 0.00 | 0.00 | 0.00 | 44 | 1015.4 |
| 20260510071557 | 44 | 293 | 3.0 | 8.0 | 0.00 | 0.00 | 0.00 | 44 | 1015.4 |
| 20260510071035 | 44 | 304 | 3.0 | 8.0 | 0.00 | 0.00 | 0.00 | 44 | 1015.4 |
| 20260510070536 | 43 | 259 | 2.0 | 5.0 | 0.00 | 0.00 | 0.00 | 43 | 1015.3 |
| 20260510070008 | 43 | 296 | 2.0 | 6.0 | 0.00 | 0.00 | 0.00 | 42 | 1015.3 |
| 20260510065506 | 44 | 241 | 1.0 | 6.0 | 0.00 | 0.00 | 0.00 | 42 | 1015.3 |
| 20260510065004 | 44 | 220 | 2.0 | 7.0 | 0.00 | 0.00 | 0.00 | 41 | 1015.3 |
| 20260510064946 | 44 | 328 | 2.0 | 7.0 | 0.00 | 0.00 | 0.00 | 41 | 1015.2 |
| 20260510064215 | 44 | 252 | 2.0 | 6.0 | 0.00 | 0.00 | 0.00 | 40 | 1015.2 |
| 20260510063713 | 44 | 207 | 2.0 | 4.0 | 0.00 | 0.00 | 0.00 | 40 | 1015.2 |
| 20260510062936 | 44 | 217 | 1.0 | 3.0 | 0.00 | 0.00 | 0.00 | 41 | 1015.3 |
| 20260510062436 | 44 | 234 | 1.0 | 3.0 | 0.00 | 0.00 | 0.00 | 41 | 1015.2 |
| 20260510061918 | 44 | 246 | 0.0 | 3.0 | 0.00 | 0.00 | 0.00 | 41 | 1015.3 |
| 20260510061401 | 44 | 246 | 0.0 | 2.0 | 0.00 | 0.00 | 0.00 | 41 | 1015.2 |
| 20260510061131 | 44 | 243 | 0.0 | 2.0 | 0.00 | 0.00 | 0.00 | 40 | 1015.2 |
| 20260510060401 | 44 | 243 | 0.0 | 3.0 | 0.00 | 0.00 | 0.00 | 40 | 1015.2 |
| 20260510060130 | 44 | 243 | 1.0 | 3.0 | 0.00 | 0.00 | 0.00 | 39 | 1015.1 |
| 20260510055630 | 44 | 244 | 1.0 | 4.0 | 0.00 | 0.00 | 0.00 | 39 | 1015.2 |
| 20260510054858 | 44 | 165 | 1.0 | 6.0 | 0.00 | 0.00 | 0.00 | 39 | 1015.1 |
| 20260510054357 | 44 | 259 | 1.0 | 6.0 | 0.00 | 0.00 | 0.00 | 38 | 1015.1 |
| 20260510053833 | 44 | 109 | 1.0 | 3.0 | 0.00 | 0.00 | 0.00 | 38 | 1015.0 |
| 20260510053331 | 44 | 221 | 1.0 | 3.0 | 0.00 | 0.00 | 0.00 | 38 | 1015.0 |
| 20260510053102 | 44 | 219 | 1.0 | 6.0 | 0.00 | 0.00 | 0.00 | 37 | 1014.9 |
| 20260510052328 | 44 | 220 | 2.0 | 6.0 | 0.00 | 0.00 | 0.00 | 37 | 1014.8 |
| 20260510051804 | 44 | 237 | 1.0 | 4.0 | 0.00 | 0.00 | 0.00 | 37 | 1015.0 |
| 20260510051239 | 44 | 242 | 1.0 | 4.0 | 0.00 | 0.00 | 0.00 | 37 | 1014.9 |
| 20260510050715 | 43 | 230 | 1.0 | 4.0 | 0.00 | 0.00 | 0.00 | 37 | 1015.0 |
| 20260510050215 | 43 | 252 | 1.0 | 3.0 | 0.00 | 0.00 | 0.00 | 37 | 1014.9 |
| 20260510045715 | 43 | 297 | 0.0 | 3.0 | 0.00 | 0.00 | 0.00 | 37 | 1014.8 |
| 20260510045149 | 43 | 219 | 1.0 | 4.0 | 0.00 | 0.00 | 0.00 | 37 | 1014.8 |
| 20260510044859 | 43 | 218 | 1.0 | 4.0 | 0.00 | 0.00 | 0.00 | 37 | 1014.7 |
| 20260510044126 | 43 | 238 | 1.0 | 3.0 | 0.00 | 0.00 | 0.00 | 37 | 1014.7 |
| 20260510043624 | 43 | 238 | 1.0 | 3.0 | 0.00 | 0.00 | 0.00 | 39 | 1014.7 |
| 20260510043122 | 42 | 254 | 1.0 | 3.0 | 0.00 | 0.00 | 0.00 | 38 | 1014.7 |
| 20260510042624 | 42 | 254 | 1.0 | 2.0 | 0.00 | 0.00 | 0.00 | 39 | 1014.7 |
| 20260510042120 | 42 | 254 | 0.0 | 2.0 | 0.00 | 0.00 | 0.00 | 40 | 1014.6 |
| 20260510041852 | 42 | 254 | 0.0 | 0.0 | 0.00 | 0.00 | 0.00 | 40 | 1014.6 |
| 20260510041117 | 41 | 254 | 0.0 | 0.0 | 0.00 | 0.00 | 0.00 | 41 | 1014.6 |
| 20260510040616 | 42 | 254 | 0.0 | 0.0 | 0.00 | 0.00 | 0.00 | 41 | 1014.6 |
| 20260510040122 | 42 | 254 | 0.0 | 0.0 | 0.00 | 0.00 | 0.00 | 39 | 1014.6 |
| 20260510040116 | 42 | 254 | 0.0 | 0.0 | 0.00 | 0.00 | 0.00 | 40 | 1014.6 |
| 20260510035114 | 42 | 254 | 0.0 | 0.0 | 0.00 | 0.00 | 0.00 | 39 | 1014.7 |
| 20260510034549 | 42 | 254 | 0.0 | 0.0 | 0.00 | 0.00 | 0.00 | 39 | 1014.6 |
| 20260510034038 | 43 | 254 | 0.0 | 0.0 | 0.00 | 0.00 | 0.00 | 38 | 1014.6 |
| 20260510033753 | 43 | 254 | 0.0 | 1.0 | 0.00 | 0.00 | 0.00 | 38 | 1014.6 |
| 20260510033255 | 43 | 254 | 0.0 | 1.0 | 0.00 | 0.00 | 0.00 | 37 | 1014.5 |
| 20260510032458 | 43 | 254 | 0.0 | 2.0 | 0.00 | 0.00 | 0.00 | 38 | 1014.5 |
| 20260510031955 | 43 | 254 | 0.0 | 3.0 | 0.00 | 0.00 | 0.00 | 37 | 1014.5 |
| 20260510031454 | 43 | 271 | 0.0 | 3.0 | 0.00 | 0.00 | 0.00 | 37 | 1014.5 |
| 20260510030953 | 43 | 271 | 1.0 | 3.0 | 0.00 | 0.00 | 0.00 | 37 | 1014.4 |
| 20260510030427 | 44 | 271 | 1.0 | 3.0 | 0.00 | 0.00 | 0.00 | 37 | 1014.5 |
| 20260510025900 | 44 | 271 | 1.0 | 2.0 | 0.00 | 0.00 | 0.00 | 35 | 1014.4 |
| 20260510025357 | 45 | 271 | 1.0 | 2.0 | 0.00 | 0.00 | 0.00 | 35 | 1014.4 |
| 20260510024843 | 46 | 271 | 1.0 | 2.0 | 0.00 | 0.00 | 0.00 | 33 | 1014.3 |
| 20260510024345 | 46 | 271 | 1.0 | 3.0 | 0.00 | 0.00 | 0.00 | 32 | 1014.2 |
| 20260510023818 | 46 | 271 | 1.0 | 3.0 | 0.00 | 0.00 | 0.00 | 32 | 1014.3 |
| 20260510023314 | 47 | 282 | 0.0 | 3.0 | 0.00 | 0.00 | 0.00 | 31 | 1014.2 |
| 20260510022804 | 47 | 282 | 1.0 | 4.0 | 0.00 | 0.00 | 0.00 | 30 | 1014.0 |
| 20260510022238 | 47 | 244 | 2.0 | 8.0 | 0.00 | 0.00 | 0.00 | 30 | 1013.9 |
| 20260510021731 | 47 | 288 | 2.0 | 8.0 | 0.00 | 0.00 | 0.00 | 30 | 1013.9 |
| 20260510021229 | 48 | 9 | 1.0 | 5.0 | 0.00 | 0.00 | 0.00 | 29 | 1013.9 |
| 20260510020703 | 48 | 315 | 2.0 | 5.0 | 0.00 | 0.00 | 0.00 | 29 | 1013.8 |
| 20260510020408 | 48 | 249 | 2.0 | 7.0 | 0.00 | 0.00 | 0.00 | 28 | 1013.8 |
| 20260510015609 | 48 | 42 | 3.0 | 10.0 | 0.00 | 0.00 | 0.00 | 29 | 1013.7 |
| 20260510015338 | 48 | 165 | 3.0 | 10.0 | 0.00 | 0.00 | 0.00 | 28 | 1013.6 |
| 20260510014540 | 49 | 44 | 3.0 | 11.0 | 0.00 | 0.00 | 0.00 | 27 | 1013.5 |
| 20260510014037 | 49 | 312 | 3.0 | 11.0 | 0.00 | 0.00 | 0.00 | 27 | 1013.5 |
| 20260510013510 | 49 | 254 | 2.0 | 8.0 | 0.00 | 0.00 | 0.00 | 27 | 1013.3 |
| 20260510013007 | 49 | 247 | 2.0 | 8.0 | 0.00 | 0.00 | 0.00 | 27 | 1013.2 |
| 20260510012504 | 49 | 294 | 3.0 | 9.0 | 0.00 | 0.00 | 0.00 | 27 | 1013.1 |
| 20260510012001 | 49 | 284 | 3.0 | 9.0 | 0.00 | 0.00 | 0.00 | 26 | 1013.0 |
| 20260510011435 | 50 | 237 | 3.0 | 6.0 | 0.00 | 0.00 | 0.00 | 26 | 1013.0 |
| 20260510010931 | 50 | 38 | 2.0 | 8.0 | 0.00 | 0.00 | 0.00 | 26 | 1012.9 |
| 20260510010405 | 50 | 355 | 2.0 | 6.0 | 0.00 | 0.00 | 0.00 | 26 | 1012.8 |
| 20260510005839 | 50 | 336 | 4.0 | 10.0 | 0.00 | 0.00 | 0.00 | 25 | 1012.8 |
| 20260510005335 | 50 | 290 | 4.0 | 11.0 | 0.00 | 0.00 | 0.00 | 25 | 1012.6 |
| 20260510004833 | 50 | 300 | 4.0 | 11.0 | 0.00 | 0.00 | 0.00 | 25 | 1012.6 |
| 20260510004305 | 50 | 298 | 4.0 | 11.0 | 0.00 | 0.00 | 0.00 | 25 | 1012.6 |
| 20260510003803 | 50 | 108 | 4.0 | 12.0 | 0.00 | 0.00 | 0.00 | 25 | 1012.5 |
| 20260510003235 | 51 | 55 | 5.0 | 12.0 | 0.00 | 0.00 | 0.00 | 25 | 1012.5 |
| 20260510002733 | 51 | 13 | 5.0 | 11.0 | 0.00 | 0.00 | 0.00 | 24 | 1012.5 |
| 20260510002205 | 51 | 288 | 4.0 | 11.0 | 0.00 | 0.00 | 0.00 | 24 | 1012.4 |
| 20260510001704 | 51 | 302 | 4.0 | 13.0 | 0.00 | 0.00 | 0.00 | 24 | 1012.3 |
| 20260510001135 | 52 | 63 | 5.0 | 13.0 | 0.00 | 0.00 | 0.00 | 24 | 1012.2 |
| 20260510000905 | 52 | 56 | 6.0 | 13.0 | 0.00 | 0.00 | 0.00 | 24 | 1012.1 |
| 20260510000338 | 52 | 355 | 7.0 | 16.0 | 0.00 | 0.00 | 0.00 | 24 | 1012.1 |
| 20260509235603 | 52 | 26 | 7.0 | 16.0 | 0.00 | 0.00 | 0.00 | 23 | 1012.0 |
| 20260509235037 | 53 | 36 | 8.0 | 19.0 | 0.00 | 0.00 | 0.00 | 23 | 1011.9 |
| 20260509234742 | 52 | 22 | 7.0 | 19.0 | 0.00 | 0.00 | 0.00 | 23 | 1011.8 |
| 20260509234006 | 53 | 105 | 5.0 | 21.0 | 0.00 | 0.00 | 0.00 | 23 | 1011.5 |
| 20260509233713 | 53 | 355 | 6.0 | 21.0 | 0.00 | 0.00 | 0.00 | 22 | 1011.7 |
| 20260509232937 | 52 | 355 | 6.0 | 17.0 | 0.00 | 0.00 | 0.00 | 21 | 1011.5 |
| 20260509232433 | 53 | 284 | 6.0 | 12.0 | 0.00 | 0.00 | 0.00 | 21 | 1011.5 |
| 20260509232201 | 53 | 28 | 5.0 | 16.0 | 0.00 | 0.00 | 0.00 | 21 | 1011.4 |
| 20260509231427 | 53 | 297 | 5.0 | 16.0 | 0.00 | 0.00 | 0.00 | 21 | 1011.3 |
| 20260509230923 | 54 | 92 | 7.0 | 17.0 | 0.00 | 0.00 | 0.00 | 20 | 1011.2 |
| 20260509230420 | 54 | 62 | 8.0 | 17.0 | 0.00 | 0.00 | 0.00 | 21 | 1011.0 |
| 20260509225855 | 54 | 180 | 6.0 | 16.0 | 0.00 | 0.00 | 0.00 | 20 | 1010.8 |
| 20260509225328 | 55 | 341 | 5.0 | 16.0 | 0.00 | 0.00 | 0.00 | 20 | 1010.8 |
| 20260509225055 | 55 | 11 | 8.0 | 16.0 | 0.00 | 0.00 | 0.00 | 20 | 1010.8 |
| 20260509224322 | 55 | 315 | 8.0 | 21.0 | 0.00 | 0.00 | 0.00 | 20 | 1010.6 |
| 20260509223753 | 55 | 258 | 8.0 | 21.0 | 0.00 | 0.00 | 0.00 | 19 | 1010.5 |
| 20260509223522 | 55 | 318 | 8.0 | 28.0 | 0.00 | 0.00 | 0.00 | 19 | 1010.5 |
| 20260509222725 | 55 | 305 | 8.0 | 28.0 | 0.00 | 0.00 | 0.00 | 20 | 1010.3 |
| 20260509222205 | 55 | 355 | 8.0 | 19.0 | 0.00 | 0.00 | 0.00 | 21 | 1010.4 |
| 20260509222127 | 54 | 255 | 10.0 | 21.0 | 0.00 | 0.00 | 0.00 | 21 | 1010.2 |
| 20260509221123 | 54 | 355 | 9.0 | 21.0 | 0.00 | 0.00 | 0.00 | 20 | 1010.3 |
| 20260509220621 | 55 | 282 | 7.0 | 20.0 | 0.00 | 0.00 | 0.00 | 20 | 1010.0 |
| 20260509220054 | 54 | 0 | 7.0 | 20.0 | 0.00 | 0.00 | 0.00 | 19 | 1010.0 |
| 20260509215549 | 55 | 355 | 7.0 | 23.0 | 0.00 | 0.00 | 0.00 | 19 | 1010.2 |
| 20260509215317 | 55 | 340 | 8.0 | 23.0 | 0.00 | 0.00 | 0.00 | 21 | 1010.1 |
| 20260509214542 | 54 | 300 | 7.0 | 17.0 | 0.00 | 0.00 | 0.00 | 20 | 1010.0 |
| 20260509214039 | 54 | 246 | 6.0 | 16.0 | 0.00 | 0.00 | 0.00 | 21 | 1010.0 |
| 20260509213539 | 54 | 139 | 6.0 | 16.0 | 0.00 | 0.00 | 0.00 | 20 | 1010.0 |
| 20260509213243 | 54 | 96 | 6.0 | 13.0 | 0.00 | 0.00 | 0.00 | 21 | 1009.9 |
| 20260509212508 | 54 | 66 | 6.0 | 17.0 | 0.00 | 0.00 | 0.00 | 21 | 1009.9 |
| 20260509211942 | 54 | 24 | 6.0 | 17.0 | 0.00 | 0.00 | 0.00 | 21 | 1009.9 |
| 20260509211439 | 55 | 5 | 6.0 | 17.0 | 0.00 | 0.00 | 0.00 | 20 | 1009.8 |
| 20260509211150 | 54 | 265 | 4.0 | 17.0 | 0.00 | 0.00 | 0.00 | 20 | 1009.9 |
| 20260509210416 | 54 | 355 | 4.0 | 12.0 | 0.00 | 0.00 | 0.00 | 21 | 1009.7 |
| 20260509205905 | 54 | 124 | 5.0 | 15.0 | 0.00 | 0.00 | 0.00 | 22 | 1009.8 |
| 20260509205405 | 54 | 259 | 5.0 | 15.0 | 0.00 | 0.00 | 0.00 | 21 | 1009.7 |
| 20260509204907 | 54 | 19 | 5.0 | 15.0 | 0.00 | 0.00 | 0.00 | 21 | 1009.8 |
| 20260509204341 | 55 | 37 | 5.0 | 13.0 | 0.00 | 0.00 | 0.00 | 21 | 1009.8 |
| 20260509203838 | 55 | 114 | 5.0 | 13.0 | 0.00 | 0.00 | 0.00 | 22 | 1009.7 |
| 20260509203337 | 54 | 101 | 7.0 | 12.0 | 0.00 | 0.00 | 0.00 | 21 | 1009.8 |
| 20260509203052 | 54 | 0 | 8.0 | 26.0 | 0.00 | 0.00 | 0.00 | 22 | 1009.6 |
| 20260509202319 | 54 | 270 | 8.0 | 26.0 | 0.00 | 0.00 | 0.00 | 21 | 1009.5 |
| 20260509202049 | 54 | 238 | 9.0 | 18.0 | 0.00 | 0.00 | 0.00 | 22 | 1009.6 |
| 20260509201253 | 54 | 327 | 8.0 | 18.0 | 0.00 | 0.00 | 0.00 | 21 | 1009.7 |
| 20260509200733 | 54 | 282 | 7.0 | 17.0 | 0.00 | 0.00 | 0.00 | 22 | 1009.6 |
| 20260509200234 | 53 | 264 | 8.0 | 17.0 | 0.00 | 0.00 | 0.00 | 23 | 1009.6 |
| 20260509195718 | 53 | 0 | 7.0 | 21.0 | 0.00 | 0.00 | 0.00 | 22 | 1009.5 |
| 20260509195159 | 53 | 323 | 8.0 | 21.0 | 0.00 | 0.00 | 0.00 | 21 | 1009.4 |
| 20260509194905 | 54 | 281 | 7.0 | 21.0 | 0.00 | 0.00 | 0.00 | 22 | 1009.5 |
| 20260509194119 | 53 | 40 | 6.0 | 19.0 | 0.00 | 0.00 | 0.00 | 22 | 1009.4 |
| 20260509193553 | 53 | 281 | 6.0 | 14.0 | 0.00 | 0.00 | 0.00 | 22 | 1009.5 |
| 20260509193303 | 53 | 276 | 6.0 | 17.0 | 0.00 | 0.00 | 0.00 | 23 | 1009.4 |
| 20260509192511 | 52 | 49 | 7.0 | 17.0 | 0.00 | 0.00 | 0.00 | 24 | 1009.3 |
| 20260509192212 | 52 | 15 | 6.0 | 15.0 | 0.00 | 0.00 | 0.00 | 22 | 1009.4 |
| 20260509191422 | 52 | 256 | 8.0 | 18.0 | 0.00 | 0.00 | 0.00 | 23 | 1009.3 |
| 20260509191131 | 52 | 332 | 8.0 | 19.0 | 0.00 | 0.00 | 0.00 | 22 | 1009.2 |
| 20260509190338 | 53 | 24 | 7.0 | 15.0 | 0.00 | 0.00 | 0.00 | 22 | 1009.2 |
| 20260509185835 | 53 | 39 | 6.0 | 15.0 | 0.00 | 0.00 | 0.00 | 23 | 1009.2 |
| 20260509185606 | 53 | 79 | 5.0 | 22.0 | 0.00 | 0.00 | 0.00 | 25 | 1009.1 |
| 20260509184815 | 52 | 311 | 9.0 | 22.0 | 0.00 | 0.00 | 0.00 | 22 | 1009.0 |
| 20260509184248 | 52 | 25 | 12.0 | 25.0 | 0.00 | 0.00 | 0.00 | 22 | 1009.1 |
| 20260509183748 | 52 | 213 | 10.0 | 25.0 | 0.00 | 0.00 | 0.00 | 22 | 1009.2 |
| 20260509183246 | 52 | 57 | 8.0 | 25.0 | 0.00 | 0.00 | 0.00 | 22 | 1009.1 |
| 20260509182742 | 52 | 306 | 8.0 | 25.0 | 0.00 | 0.00 | 0.00 | 23 | 1009.2 |
| 20260509182241 | 52 | 336 | 7.0 | 16.0 | 0.00 | 0.00 | 0.00 | 23 | 1009.2 |
| 20260509181737 | 51 | 355 | 7.0 | 17.0 | 0.00 | 0.00 | 0.00 | 24 | 1008.9 |
| 20260509181211 | 52 | 330 | 8.0 | 23.0 | 0.00 | 0.00 | 0.00 | 24 | 1009.2 |
| 20260509180710 | 51 | 32 | 7.0 | 23.0 | 0.00 | 0.00 | 0.00 | 23 | 1009.0 |
| 20260509180142 | 51 | 0 | 5.0 | 16.0 | 0.00 | 0.00 | 0.00 | 25 | 1008.9 |
| 20260509175911 | 51 | 15 | 7.0 | 19.0 | 0.00 | 0.00 | 0.00 | 26 | 1008.9 |
| 20260509175135 | 51 | 30 | 8.0 | 19.0 | 0.00 | 0.00 | 0.00 | 24 | 1008.9 |
| 20260509174632 | 51 | 9 | 8.0 | 20.0 | 0.00 | 0.00 | 0.00 | 24 | 1008.8 |
| 20260509174338 | 51 | 109 | 8.0 | 25.0 | 0.00 | 0.00 | 0.00 | 24 | 1008.6 |
| 20260509173546 | 51 | 40 | 8.0 | 21.0 | 0.00 | 0.00 | 0.00 | 25 | 1008.6 |
| 20260509173021 | 51 | 306 | 7.0 | 21.0 | 0.00 | 0.00 | 0.00 | 26 | 1008.8 |
| 20260509172454 | 51 | 299 | 8.0 | 21.0 | 0.00 | 0.00 | 0.00 | 25 | 1008.7 |
| 20260509171950 | 51 | 215 | 8.0 | 21.0 | 0.00 | 0.00 | 0.00 | 26 | 1008.6 |
| 20260509171447 | 51 | 38 | 7.0 | 21.0 | 0.00 | 0.00 | 0.00 | 27 | 1008.3 |
| 20260509170922 | 51 | 234 | 8.0 | 21.0 | 0.00 | 0.00 | 0.00 | 27 | 1008.3 |
| 20260509170414 | 50 | 311 | 9.0 | 27.0 | 0.00 | 0.00 | 0.00 | 27 | 1008.3 |
| 20260509170140 | 50 | 324 | 9.0 | 27.0 | 0.00 | 0.00 | 0.00 | 27 | 1008.3 |
| 20260509165343 | 50 | 275 | 9.0 | 19.0 | 0.00 | 0.00 | 0.00 | 26 | 1008.2 |
| 20260509164838 | 50 | 350 | 9.0 | 23.0 | 0.00 | 0.00 | 0.00 | 27 | 1008.0 |
| 20260509164313 | 50 | 29 | 9.0 | 20.0 | 0.00 | 0.00 | 0.00 | 26 | 1008.0 |
| 20260509163807 | 50 | 115 | 9.0 | 22.0 | 0.00 | 0.00 | 0.00 | 27 | 1007.8 |
| 20260509163304 | 51 | 31 | 7.0 | 22.0 | 0.00 | 0.00 | 0.00 | 26 | 1007.8 |
| 20260509163032 | 51 | 192 | 7.0 | 21.0 | 0.00 | 0.00 | 0.00 | 29 | 1007.7 |
| 20260509162258 | 50 | 287 | 7.0 | 21.0 | 0.00 | 0.00 | 0.00 | 26 | 1007.4 |
| 20260509161756 | 50 | 15 | 9.0 | 29.0 | 0.00 | 0.00 | 0.00 | 26 | 1007.7 |
| 20260509161231 | 50 | 284 | 7.0 | 26.0 | 0.00 | 0.00 | 0.00 | 26 | 1007.4 |
| 20260509160724 | 51 | 261 | 6.0 | 20.0 | 0.00 | 0.00 | 0.00 | 27 | 1007.4 |
| 20260509160452 | 50 | 12 | 7.0 | 20.0 | 0.00 | 0.00 | 0.00 | 27 | 1007.4 |
| 20260509155718 | 50 | 54 | 7.0 | 17.0 | 0.00 | 0.00 | 0.00 | 28 | 1007.6 |
| 20260509155216 | 50 | 46 | 8.0 | 19.0 | 0.00 | 0.00 | 0.00 | 28 | 1007.6 |
| 20260509154648 | 49 | 293 | 9.0 | 20.0 | 0.00 | 0.00 | 0.00 | 29 | 1007.3 |
| 20260509154146 | 49 | 229 | 9.0 | 20.0 | 0.00 | 0.00 | 0.00 | 29 | 1007.1 |
| 20260509153853 | 49 | 313 | 9.0 | 19.0 | 0.00 | 0.00 | 0.00 | 30 | 1007.1 |
| 20260509153617 | 49 | 288 | 9.0 | 20.0 | 0.00 | 0.00 | 0.00 | 31 | 1007.0 |
| 20260509152820 | 49 | 268 | 8.0 | 21.0 | 0.00 | 0.00 | 0.00 | 30 | 1007.0 |
| 20260509152044 | 50 | 355 | 6.0 | 21.0 | 0.00 | 0.00 | 0.00 | 30 | 1006.9 |
| 20260509151542 | 50 | 317 | 5.0 | 19.0 | 0.00 | 0.00 | 0.00 | 30 | 1006.7 |
| 20260509151038 | 50 | 16 | 8.0 | 18.0 | 0.00 | 0.00 | 0.00 | 29 | 1006.7 |
| 20260509150536 | 49 | 80 | 10.0 | 19.0 | 0.00 | 0.00 | 0.00 | 30 | 1006.7 |
| 20260509150008 | 49 | 299 | 8.0 | 19.0 | 0.00 | 0.00 | 0.00 | 30 | 1006.6 |
| 20260509145505 | 49 | 51 | 6.0 | 17.0 | 0.00 | 0.00 | 0.00 | 29 | 1006.5 |
| 20260509145002 | 50 | 351 | 6.0 | 17.0 | 0.00 | 0.00 | 0.00 | 30 | 1006.3 |
| 20260509144436 | 49 | 53 | 7.0 | 23.0 | 0.00 | 0.00 | 0.00 | 30 | 1006.3 |
| 20260509143908 | 49 | 222 | 7.0 | 23.0 | 0.00 | 0.00 | 0.00 | 30 | 1006.4 |
| 20260509143638 | 49 | 286 | 9.0 | 18.0 | 0.00 | 0.00 | 0.00 | 31 | 1006.3 |
| 20260509143112 | 48 | 288 | 9.0 | 21.0 | 0.00 | 0.00 | 0.00 | 30 | 1006.3 |
| 20260509142336 | 48 | 196 | 8.0 | 21.0 | 0.00 | 0.00 | 0.00 | 31 | 1006.2 |
| 20260509141836 | 48 | 240 | 7.0 | 21.0 | 0.00 | 0.00 | 0.00 | 30 | 1006.1 |
| 20260509141306 | 48 | 318 | 6.0 | 18.0 | 0.00 | 0.00 | 0.00 | 29 | 1006.1 |
| 20260509140738 | 48 | 313 | 8.0 | 19.0 | 0.00 | 0.00 | 0.00 | 29 | 1006.0 |
| 20260509140235 | 48 | 254 | 8.0 | 19.0 | 0.00 | 0.00 | 0.00 | 29 | 1006.0 |
| 20260509135709 | 48 | 42 | 9.0 | 20.0 | 0.00 | 0.00 | 0.00 | 29 | 1005.8 |
| 20260509135143 | 48 | 315 | 7.0 | 20.0 | 0.00 | 0.00 | 0.00 | 28 | 1005.7 |
| 20260509134631 | 49 | 336 | 6.0 | 17.0 | 0.00 | 0.00 | 0.00 | 28 | 1005.6 |
| 20260509134134 | 48 | 265 | 7.0 | 30.0 | 0.00 | 0.00 | 0.00 | 28 | 1005.5 |
| 20260509133607 | 48 | 271 | 8.0 | 30.0 | 0.00 | 0.00 | 0.00 | 28 | 1005.5 |
| 20260509133041 | 48 | 279 | 7.0 | 17.0 | 0.00 | 0.00 | 0.00 | 28 | 1005.2 |
| 20260509132810 | 48 | 277 | 7.0 | 18.0 | 0.00 | 0.00 | 0.00 | 28 | 1005.1 |
| 20260509132307 | 48 | 313 | 5.0 | 18.0 | 0.00 | 0.00 | 0.00 | 28 | 1005.2 |
| 20260509131508 | 48 | 317 | 6.0 | 17.0 | 0.00 | 0.00 | 0.00 | 28 | 1005.1 |
| 20260509131008 | 47 | 298 | 7.0 | 17.0 | 0.00 | 0.00 | 0.00 | 28 | 1004.9 |
| 20260509130443 | 47 | 273 | 6.0 | 18.0 | 0.00 | 0.00 | 0.00 | 28 | 1005.0 |
| 20260509130210 | 47 | 340 | 5.0 | 18.0 | 0.00 | 0.00 | 0.00 | 28 | 1004.8 |
| 20260509125415 | 47 | 355 | 4.0 | 12.0 | 0.00 | 0.00 | 0.00 | 28 | 1004.9 |
| 20260509124913 | 46 | 106 | 4.0 | 9.0 | 0.00 | 0.00 | 0.00 | 29 | 1004.7 |
| 20260509124415 | 46 | 90 | 5.0 | 10.0 | 0.00 | 0.00 | 0.00 | 29 | 1004.7 |
| 20260509123857 | 46 | 261 | 5.0 | 14.0 | 0.00 | 0.00 | 0.00 | 30 | 1004.6 |
| 20260509123359 | 46 | 285 | 4.0 | 10.0 | 0.00 | 0.00 | 0.00 | 30 | 1004.5 |
| 20260509122840 | 46 | 319 | 4.0 | 10.0 | 0.00 | 0.00 | 0.00 | 30 | 1004.5 |
| 20260509122343 | 46 | 314 | 4.0 | 12.0 | 0.00 | 0.00 | 0.00 | 30 | 1004.6 |
| 20260509121820 | 46 | 5 | 4.0 | 12.0 | 0.00 | 0.00 | 0.00 | 30 | 1004.5 |
| 20260509121321 | 46 | 270 | 4.0 | 11.0 | 0.00 | 0.00 | 0.00 | 30 | 1004.5 |
| 20260509120756 | 46 | 355 | 4.0 | 11.0 | 0.00 | 0.00 | 0.00 | 30 | 1004.5 |
| 20260509120233 | 46 | 27 | 4.0 | 14.0 | 0.00 | 0.00 | 0.00 | 29 | 1004.3 |
| 20260509115732 | 46 | 58 | 3.0 | 14.0 | 0.00 | 0.00 | 0.00 | 29 | 1004.3 |
| 20260509115216 | 46 | 88 | 3.0 | 8.0 | 0.00 | 0.00 | 0.00 | 30 | 1004.3 |
| 20260509114700 | 46 | 322 | 3.0 | 12.0 | 0.00 | 0.00 | 0.00 | 29 | 1004.2 |
| 20260509114134 | 46 | 293 | 3.0 | 12.0 | 0.00 | 0.00 | 0.00 | 29 | 1004.1 |
| 20260509113905 | 46 | 32 | 3.0 | 10.0 | 0.00 | 0.00 | 0.00 | 29 | 1003.9 |
| 20260509113113 | 46 | 149 | 3.0 | 10.0 | 0.00 | 0.00 | 0.00 | 29 | 1004.0 |
| 20260509112558 | 47 | 111 | 5.0 | 14.0 | 0.00 | 0.00 | 0.00 | 28 | 1004.0 |
| 20260509112058 | 47 | 69 | 4.0 | 14.0 | 0.00 | 0.00 | 0.00 | 29 | 1003.9 |
| 20260509111548 | 47 | 341 | 2.0 | 6.0 | 0.00 | 0.00 | 0.00 | 28 | 1003.7 |
| 20260509111541 | 47 | 289 | 2.0 | 8.0 | 0.00 | 0.00 | 0.00 | 28 | 1003.8 |
| 20260509111040 | 47 | 98 | 2.0 | 4.0 | 0.00 | 0.00 | 0.00 | 28 | 1003.8 |